(37) Fides
ephemeris date magn radius delta ra dec elong phase
Opposition3 Jul 202611.43.006 AU1.992 AU18h55m-27°28'175.3°1.6°
Today27 Jul 202611.82.981 AU2.039 AU18h33m-27°39'153.4°8.8°
(37) Fides - 2026-07-27
astro.vanbuitenen.nl


 
-1 year
-1 month
-1 day
Now
+1 day
+1 month
+1 year

The interactive orbit chart above shows the body's path through the solar system and its position at the given date. Green and blue lines are shown perpendicular to the ecliptic plane: Green if the path is above the ecliptic plane, blue if it is below. (Left-click and drag to rotate the view; Right-click and drag to move the view; Use scroll wheel to zoom in our out.)

The orbital elements of Fides are:

            e (Eccentricity)                : 0.1745521
            a (Semimajor axis)              : 2.6433615
            i (Inclination)                 : 3.06749
            Ω (Longitude of ascending node) : 7.22727
            ω (Argument of perihelion)      : 62.32993
            M (Mean anomaly)                : 218.71629
            Epoch                           : 2026 Jun 09

            L (Longitude of perihelion)     : 69.52340
            B (Latitude of perihelion)      : 2.71640
            P (Orbital period in years)     : 4.30            
        

The light curve chart below shows the estimated development of the minor planet's magnitude.


The all-sky chart below shows the path of the minor planet over the same period as the light curve. The current position is marked yellow.





The following chart shows the path of the minor planet in the next few days. The field of view is optimized for (~10x50) binoculars and finderscopes.




Ephemerides:
Date       Time       RA (2000)    DEC (2000)    delta   radius  elong  phase   PA    magn
2026-07-27 00:00 UT   18 33 07.8   -27 39 54     2.039    2.981  153.4    8.8    78   11.8 
2026-07-27 22:00 UT   18 32 25.1   -27 39 37     2.043    2.980  152.3    9.1    78   11.8 
2026-07-28 00:00 UT   18 32 21.3   -27 39 35     2.044    2.980  152.3    9.1    78   11.8 
2026-07-29 00:00 UT   18 31 35.9   -27 39 12     2.049    2.979  151.2    9.5    79   11.8 
2026-07-30 00:00 UT   18 30 51.8   -27 38 46     2.055    2.978  150.0    9.8    79   11.9 
2026-07-31 00:00 UT   18 30 08.9   -27 38 16     2.061    2.977  148.9   10.1    80   11.9 
2026-08-01 00:00 UT   18 29 27.3   -27 37 44     2.067    2.976  147.9   10.5    80   11.9 
2026-08-02 00:00 UT   18 28 47.1   -27 37 08     2.073    2.975  146.8   10.8    80   11.9 
2026-08-03 00:00 UT   18 28 08.2   -27 36 30     2.080    2.973  145.7   11.1    81   11.9 
2026-08-04 00:00 UT   18 27 30.7   -27 35 48     2.087    2.972  144.6   11.4    81   11.9 
2026-08-05 00:00 UT   18 26 54.6   -27 35 04     2.094    2.971  143.5   11.7    82   12.0 
2026-08-06 00:00 UT   18 26 20.0   -27 34 17     2.101    2.970  142.4   12.0    82   12.0 
2026-08-07 00:00 UT   18 25 46.8   -27 33 28     2.108    2.969  141.4   12.3    82   12.0 
2026-08-08 00:00 UT   18 25 15.1   -27 32 36     2.116    2.968  140.3   12.6    82   12.0 
2026-08-09 00:00 UT   18 24 44.9   -27 31 42     2.124    2.966  139.2   12.9    83   12.0 
2026-08-10 00:00 UT   18 24 16.3   -27 30 46     2.132    2.965  138.2   13.2    83   12.1 
2026-08-11 00:00 UT   18 23 49.2   -27 29 47     2.140    2.964  137.1   13.5    83   12.1 
2026-08-12 00:00 UT   18 23 23.7   -27 28 47     2.148    2.963  136.1   13.7    83   12.1 
2026-08-13 00:00 UT   18 22 59.7   -27 27 45     2.157    2.962  135.0   14.0    84   12.1 
2026-08-14 00:00 UT   18 22 37.4   -27 26 41     2.166    2.960  134.0   14.2    84   12.1 
2026-08-15 00:00 UT   18 22 16.6   -27 25 35     2.174    2.959  133.0   14.5    84   12.1 
2026-08-16 00:00 UT   18 21 57.5   -27 24 27     2.184    2.958  132.0   14.8    84   12.2 
2026-08-17 00:00 UT   18 21 40.0   -27 23 18     2.193    2.957  130.9   15.0    84   12.2 
2026-08-18 00:00 UT   18 21 24.2   -27 22 07     2.202    2.956  129.9   15.2    84   12.2 
2026-08-19 00:00 UT   18 21 09.9   -27 20 55     2.212    2.954  128.9   15.5    85   12.2 
2026-08-20 00:00 UT   18 20 57.3   -27 19 42     2.222    2.953  127.9   15.7    85   12.2 
2026-08-21 00:00 UT   18 20 46.4   -27 18 27     2.231    2.952  126.9   15.9    85   12.2 
2026-08-22 00:00 UT   18 20 37.1   -27 17 11     2.241    2.951  125.9   16.1    85   12.3 
2026-08-23 00:00 UT   18 20 29.4   -27 15 54     2.252    2.949  124.9   16.3    85   12.3 
2026-08-24 00:00 UT   18 20 23.3   -27 14 36     2.262    2.948  124.0   16.5    85   12.3 
2026-08-25 00:00 UT   18 20 18.8   -27 13 17     2.272    2.947  123.0   16.7    85   12.3 
2026-08-26 00:00 UT   18 20 16.0   -27 11 57     2.283    2.946  122.0   16.9    86   12.3 


    Terminology:
            
    delta:  distance between minor planet and earth in AU
    radius: distance between minor planet and sun in AU
    magn:   magnitude (brightness) estimate    
    ra:     right ascension in hours (24h = 360deg)
    dec:    declination in degrees
    elong:  elongation in degrees (angle sun-earth-minor planet)    
    phase:  phase angle in degrees (angle sun-minor planet-earth)        
    AU:     Astronomical Unit (mean distance between earth and sun: 149597870.7 km
    

Orbital elements provided by the MPC (Minor Planet Center).
Calculations by a modified version of AAPlus, a C# implementation of the AA+ project by PJ Naughter from the algorithms presented in the book "Astronomical Algorithms" by Jean Meeus.
NGC2000 dso catalog and star labels from VizieR as provided by the Strasbourg astronomical Data Center.
Tycho2 catalog from the ESO archive.